Location: Hickory_Viewmont
(35.7830°N, 81.3170°W)
Time: 00:33:12
(UTC-04:00)

Daily predictions for brighter satellites

Satellite Brightness Start Highest point End
(mag) Time Altitude Azimuth Time Altitude Azimuth Time Altitude Azimuth
Cosmos 1833 Rocket 3.1 00:01:40 10° NNW 00:06:17 59° NW 00:06:17 59° NW
H-2A R/B 3.5 00:15:17 30° W 00:15:17 30° W 00:19:34 10° NW
Lacrosse 5 4.1 00:22:41 17° NE 00:22:41 17° NE 00:23:51 10° NE
Cosmos 1821 Rocket 4.2 00:21:38 67° NNE 00:21:38 67° NNE 00:26:59 10° N
Meteor 1-11 Rocket 4.2 00:22:41 59° N 00:22:41 59° N 00:27:20 10° N
Cosmos 2082 Rocket 3.3 00:18:56 10° NW 00:23:06 36° WNW 00:23:06 36° WNW
Cosmos 1934 Rocket 4.3 00:38:39 59° N 00:38:39 59° N 00:43:28 10° N
Cosmos 2123 Rocket 4.4 00:34:04 10° N 00:39:07 57° NNE 00:39:07 57° NNE
NOSS 3-1 (C) 4.1 00:38:01 10° NNW 00:45:41 67° ENE 00:46:09 65° ENE
CZ-3 Stage 3 4.5 00:25:20 10° W 00:45:23 44° SW 00:45:23 44° SW
Cosmos 2369 Rocket 3.2 01:12:49 42° N 01:12:49 42° N 01:16:39 10° NNE
CZ-2C R/B 3.9 01:26:23 10° NNE 01:29:23 36° NNE 01:29:23 36° NNE
Cosmos 2100 Rocket 4.5 01:44:59 58° N 01:44:59 58° N 01:50:00 10° N
SeaSat 1 4.3 01:47:23 24° NE 01:47:23 24° NE 01:50:53 10° N
Cosmos 2061 Rocket 4.5 01:54:19 58° NNW 01:54:19 58° NNW 01:59:27 10° N
Cosmos 1943 Rocket 3.3 01:56:26 41° N 01:56:26 41° N 02:00:07 10° NNE
Lacrosse 5 4.0 02:01:49 20° NW 02:02:11 20° NW 02:05:58 10° NNE
Cosmos 2016 Rocket 4.5 02:06:32 55° N 02:06:32 55° N 02:11:13 10° N
Cosmos 2098 Rocket 4.5 02:09:42 60° ENE 02:09:42 60° ENE 02:16:11 10° NNE
ATLAS 2AS CENTAUR R/B 2.9 02:18:52 10° NNW 02:26:59 86° ENE 02:27:02 86° ENE
ATLAS CENTAUR R/B 4.3 02:38:00 13° E 02:38:00 13° E 02:39:15 10° ENE
Cosmos 1725 Rocket 4.3 02:40:59 57° NNW 02:40:59 57° NNW 02:46:05 10° N
Tsikada Rocket 4.3 02:45:41 10° NNW 02:50:56 59° NW 02:50:56 59° NW
CZ-2D R/B 4.4 02:56:18 10° ENE 02:59:22 15° E 03:00:39 14° ESE
SL-08 R/B 4.3 03:03:26 44° NE 03:03:26 44° NE 03:07:08 10° N
Cosmos 2219 4.3 03:00:48 10° NNW 03:04:08 35° NW 03:04:08 35° NW
Cosmos 2227 Rocket 3.3 03:06:44 10° N 03:12:03 39° ENE 03:14:30 27° ESE
Cosmos 44 4.1 03:09:45 10° NNW 03:13:39 49° N 03:13:39 49° N
IRS-P3 4.4 03:12:12 10° N 03:16:49 64° NNW 03:16:49 64° NNW
SeaSat 1 4.3 03:27:10 20° NW 03:27:10 20° NW 03:28:51 10° NW
Cosmos 2278 3.6 03:25:11 82° NNE 03:25:11 82° NNE 03:30:37 10° NNE
Cosmos 2369 3.6 03:25:57 79° E 03:25:57 79° E 03:31:26 10° NNE
Cosmos 1812 Rocket 4.4 03:27:58 49° N 03:27:58 49° N 03:31:15 10° N
Cosmos 2297 Rocket 3.3 03:28:26 10° N 03:33:47 42° ENE 03:38:13 14° SE
NOSS 2-1 (E) 4.4 03:36:52 45° NE 03:36:52 45° NE 03:39:59 10° NE
Cosmos 405 Rocket 3.8 03:35:31 10° N 03:38:36 45° NNE 03:38:36 45° NNE
Cosmos 1898 Rocket 4.1 03:34:29 10° N 03:39:45 56° ENE 03:41:29 39° SE
Cosmos 1464 Rocket 3.8 03:42:23 69° SW 03:43:05 78° W 03:49:26 10° N
NPP 4.0 03:38:32 10° N 03:43:33 49° WNW 03:43:33 49° WNW
BREEZE-M DEB (TANK) 3.6 03:44:28 52° SSE 03:44:41 52° SE 03:48:38 10° ENE
Resurs 1-4 Rocket 3.0 03:41:06 10° NNE 03:46:05 42° E 03:47:24 36° SE
CBERS 1 LM4 rocket 4.4 03:41:52 10° N 03:46:20 71° NW 03:46:20 71° NW
Cosmos 972 Rocket 4.3 03:44:32 10° NNW 03:48:35 53° WNW 03:48:35 53° WNW
Meteor 1-24 Rocket 4.4 03:47:49 10° N 03:53:25 53° E 03:57:00 23° SSE
UNKNOWN OBJECT B 4.4 03:50:49 10° NE 03:54:07 26° E 03:54:35 26° ESE
Cosmos 1937 Rocket 4.1 03:49:16 10° N 03:54:20 53° ENE 03:57:29 22° SE
ADEOS 3.4 03:49:17 10° N 03:54:29 71° WNW 03:54:45 70° W
IRAS Rocket 4.5 03:49:12 10° N 03:54:39 53° WNW 03:55:04 51° W
Cosmos 1763 Rocket 4.0 03:56:08 44° SE 03:57:15 52° ESE 04:02:18 10° NNE
Cosmos 1953 4.4 03:57:40 18° ESE 03:59:09 22° E 04:02:19 10° NE
Okean 3 Rocket 3.5 03:55:56 10° N 04:00:20 82° ENE 04:00:20 82° ENE
ARIANE 5 R/B 2.4 03:59:02 10° NNE 04:04:11 87° ESE 04:05:07 61° S
BREEZE-M DEB (TANK) 4.4 04:04:08 29° W 04:05:59 37° NW 04:08:59 10° NNE
Meteor 2-12 Rocket 4.4 04:05:20 43° S 04:07:27 81° E 04:13:31 10° N
ERS-2 3.6 04:06:15 10° N 04:08:38 29° NW 04:08:38 29° NW
OAO 1 4.4 04:09:33 56° WSW 04:10:44 84° S 04:16:14 10° E
ATLAS CENTAUR R/B 1.9 04:14:20 54° W 04:15:02 60° WNW 04:20:01 10° NNE
SME Rocket 3.9 04:14:20 36° S 04:16:43 83° WSW 04:24:21 10° NNW
Cosmos 1441 Rocket 4.4 04:13:19 10° N 04:17:08 42° ENE 04:19:18 22° SE
Spot 4 Rocket 4.3 04:12:28 10° N 04:17:25 48° WNW 04:18:08 45° W
GPS 2-04 Rocket1 2.6 04:19:02 74° ESE 04:19:02 74° ESE 04:22:36 10° E
Cosmos 1707 3.7 04:16:08 10° NNW 04:18:54 36° NW 04:18:54 36° NW
Cosmos 1656 3.8 04:23:00 44° WSW 04:24:31 59° WNW 04:30:08 10° NNE
IRS-1D 3.6 04:23:18 10° N 04:28:10 58° WNW 04:29:22 45° SW
Cosmos 2298 Rocket 4.4 04:24:18 10° NNW 04:29:16 42° WSW 04:29:35 41° WSW
USA 161 4.2 04:34:18 12° NW 04:34:18 12° NW 04:34:34 10° NW
ASTRO E2 3.4 04:38:07 38° S 04:38:07 38° S 04:41:26 10° ESE
CZ-2D R/B 2.3 04:34:25 10° N 04:39:47 59° WNW 04:41:59 34° SW
Okean O Rocket 2.2 04:37:29 10° NNE 04:41:48 54° E 04:44:41 20° S
Cosmos 1697 Rocket 2.9 04:39:37 35° SW 04:41:49 57° WNW 04:47:24 10° NNE
SL-16 R/B 2.6 04:38:42 24° S 04:42:25 57° WSW 04:48:30 10° NNW
Cosmos 1076 Rocket 3.4 04:38:48 10° NNW 04:43:07 70° W 04:44:52 34° S
Cosmos 2082 4.3 04:39:04 10° NW 04:44:03 33° WSW 04:44:49 32° WSW
In-Cosmos 22 4.3 04:40:57 10° N 04:46:13 70° E 04:51:30 10° SSE
Cosmos 1980 Rocket 2.1 04:46:18 29° SSW 04:49:17 84° WNW 04:54:59 10° NNE
USA 81 4.5 04:45:44 11° S 04:50:44 63° E 04:55:57 10° N
ISS -1.3 04:51:17 10° NNW 04:54:13 30° NE 04:57:09 10° E
Cosmos 1544 3.6 04:53:00 19° SSE 04:55:27 57° E 04:59:03 10° NNE
Cosmos 2227 Rocket 3.2 04:51:19 10° NW 04:55:49 25° WSW 04:56:12 24° WSW
IRS-1C Rocket 4.1 04:50:47 10° NNE 04:56:04 87° ESE 05:00:04 18° SSW
Cosmos 1655 Rocket 4.4 04:51:34 10° N 04:57:57 67° E 05:04:17 10° SSE
CZ-4B R/B 3.5 04:54:53 10° NNE 04:58:43 49° E 05:01:52 13° S
ADEOS II 4.2 04:54:47 10° NE 04:58:58 24° E 05:03:08 10° SSE
Cosmos 2322 Rocket 3.2 04:54:35 10° S 04:59:52 44° ESE 05:05:09 10° NE
Nadezhda 4 Rocket 4.4 04:54:08 10° NNW 04:59:54 42° W 05:03:41 20° SSW
Cosmos 990 Rocket 4.2 04:56:30 10° NNW 05:01:31 47° WSW 05:06:15 11° S
Cosmos 1674 4.4 04:59:42 10° NNE 05:03:10 34° E 05:06:36 10° SE
Centaur D-1A AC-31 4.2 04:45:15 20° SW 05:04:32 42° S 05:11:00 10° ESE
Cosmos-2242 3.3 05:02:54 27° SW 05:04:55 50° W 05:09:07 10° N
GEOS 3 Rocket 3.8 05:00:07 10° SSE 05:05:06 46° WSW 05:10:06 10° NW
PSLV R/B 3.6 05:02:11 10° N 05:06:02 74° WNW 05:08:16 23° SSW
Cosmos 1408 Rocket 4.1 05:02:02 10° NNW 05:06:07 39° W 05:08:12 24° SW
Cosmos 1470 3.5 05:02:48 10° S 05:06:35 51° E 05:10:27 10° NNE
Cosmos 1766 Rocket 4.0 05:03:38 10° NNW 05:07:46 41° W 05:10:12 21° SSW
BREEZE-M DEB 4.2 05:09:33 30° W 05:10:31 45° SW 05:14:01 10° SE
Aurora 2 Rocket 3.9 05:12:06 12° S 05:12:06 12° S 05:13:14 10° SSE
Cosmos 2297 Rocket 3.3 05:13:09 10° NW 05:17:29 23° W 05:19:51 18° SW
Milstar 3 Cent rocket 3.2 05:16:48 18° WSW 05:20:48 47° S 05:30:14 10° ESE
Okean-O 3.5 05:18:54 10° NNE 05:23:13 49° E 05:27:30 10° S
Cosmos 372 Rocket 4.5 05:20:09 10° N 05:25:13 62° ENE 05:30:14 10° SSE
Resurs 1-4 Rocket 3.6 05:21:44 10° NNW 05:25:35 21° WNW 05:28:28 14° WSW
PSLV R/B 4.4 05:21:36 10° NNE 05:25:44 50° E 05:29:52 10° S
Cosmos 1842 Rocket 3.6 05:21:58 12° SSW 05:26:04 63° W 05:30:32 10° N
Cosmos 2360 4.4 05:21:45 16° SW 05:26:17 59° WNW 05:31:57 10° NNE
Cosmos 1125 Rocket 3.4 05:22:44 10° NNW 05:27:55 70° WSW 05:33:04 10° S
Cosmos 2026 Rocket 4.1 05:25:03 10° NNW 05:31:17 61° W 05:37:24 10° S
SL-16 R/B 2.3 05:26:02 10° SSW 05:31:41 79° ESE 05:37:22 10° NNE
ARGOS Delta rocket 3.9 05:28:01 10° N 05:33:07 68° WNW 05:37:54 10° SSW
CZ-2C R/B 4.0 05:28:35 10° S 05:33:07 47° W 05:37:37 10° NNW
Cosmos 1953 3.8 05:33:27 15° WSW 05:35:30 21° WNW 05:38:36 10° NNW
CZ-3 R/B 3.4 05:14:42 14° WSW 05:37:40 51° S 05:44:31 10° ESE
NOSS 3-4 (A) 4.4 05:34:03 10° NW 05:40:24 35° WSW 05:47:02 10° S
NOSS 3-4 (C) 4.4 05:34:09 10° NW 05:40:32 36° WSW 05:47:14 10° S
Cosmos 1328 4.2 05:43:06 10° N 05:47:08 71° E 05:51:09 10° SSE
Cosmos 2058 4.1 05:44:27 10° N 05:48:32 48° E 05:52:36 10° SSE
ADEOS Rocket 3.6 05:42:23 10° NNE 05:48:56 73° ESE 05:56:11 10° S
Cosmos 1437 4.1 05:46:24 10° NW 05:49:04 22° W 05:51:43 10° SW
Abrixas 4.2 05:49:30 10° NW 05:52:24 37° NNE 05:55:17 10° ESE
CZ-4B R/B 3.9 05:47:59 10° N 05:53:04 38° WNW 05:58:02 10° SW
Cosmos 2263 Rocket 3.8 05:48:46 10° N 05:54:01 41° ENE 05:59:13 10° SE
Thor Agena Rocket 3.9 05:52:41 10° S 05:57:26 42° W 06:02:13 10° NNW
GPS 2-04 Rocket1 2.5 05:54:45 10° W 05:58:40 82° S 06:02:21 10° E
Meteor 1-16 Rocket 4.4 05:53:29 10° S 05:59:23 88° W 06:05:21 10° N
Cosmos 1733 3.8 05:56:37 10° SSW 06:00:09 37° W 06:03:42 10° N
Meteor 2-20 4.4 05:56:22 10° NNW 06:02:26 72° W 06:08:29 10° S
Aureole 1 Rocket 4.5 05:59:10 10° SW 06:04:26 45° WNW 06:11:20 10° N
